Weather in Leninigorsk

Russia / Republic of Tatarstan     54°35′56″N   52°26′33″E
temp.,
°C
wind,
m/s
gust,
m/s
humid.,
%
clouds,
%
prec.,
mm/h
press.,
hPa
HPBL,
m
9 may, sun
sun900:00+12ese2266100 0.0 101621
03:00+10se33755 0.0 101628
06:00+14sse26660 0.0 1016185
09:00+19sse45440 0.0 1015948
12:00+21s33340 0.0 10152295
15:00+22s33332 0.0 10152478
18:00+19se3450100 0.0 101559
21:00+17se354796 0.0 101589
10 may, mon
mon1000:00+14se225441 0.0 101611
03:00+13se225931 0.0 101723
06:00+16ese275814 0.0 1018206
09:00+21se5643100 0.0 1019750
12:00+22se4434100 0.0 10202221
15:00+23se443499 0.0 10202388
18:00+20ese2248100 0.0 102124
21:00+18e2454100 0.0 102291
11 may, tue
tue1100:00+15e335657 0.0 102333
03:00+13ene226171 0.0 102415
06:00+16e1257100 0.0 102590
09:00+21ese3345100 0.0 1026622
12:00+23se333698 0.0 10261717
15:00+24se223343 0.0 10262436
18:00+20ese354968 0.0 102787
21:00+16ese366097 0.0 102889
12 may, wed
wed1200:00+15ese225767 0.0 102814
03:00+14e225899 0.0 102911
06:00+16e2557100 0.0 1029152
09:00+21ese4440100 0.0 1029827
12:00+23se3436100 0.0 10291987
15:00+23ese333384 0.0 10281983
18:00+21ese22455 0.0 102817
21:00+16ese22495 0.0 102819
13 may, thu
thu1300:00+15se115619 0.0 102911
03:00+14e11570 0.0 102911
06:00+17e12530 0.0 1029115
09:00+23ese34370 0.0 10281023
12:00+25se34310 0.0 10282072
15:00+25sse33330 0.0 10272263
18:00+23sse114617 0.0 102611
21:00+18ese11600 0.0 102711